Terug naar catalogus

STARLINK-32324

ActiefCommunicatieVLEO
NORAD 61863·PAYLOAD·🇺🇸 United States

Gelanceerd Nov 7, 2024 vanaf Cape Canaveral Space Force Station

Loading…

Volgende Passages (komende 24 uur)

TLE

VersSource: CelesTrak SupGP

Epoch: Sep 14, 2026, 22:15 UTC

1 61863C 24202U   26257.92756944  .00032990  00000+0  11951-2 0  2570
2 61863  43.0021 249.4925 0001498 264.1597 201.8599 15.27556945    11

Volg STARLINK-32324 in realtime met AllMySat

Download on the App Store